"TOA5","AWS1","CR1000","7964","CR1000.Std.14","CPU:AWS1_114.CR1","64363","TBL110"
"TIMESTAMP","RECORD","Wind_spd_WVc(1)","Wind_spd_WVc(2)","Air_Temp_Avg","Humidity_Avg","SW_upper_Wm2_Avg","Rain_Tot","Press_Avg","Issui_Tot","Depth_cm","SR50A_Raw","Quality","Ground_Temp_Avg(1)","Ground_Temp_Avg(2)","SW_lower_Wm2_Avg","Albedo_Avg","SWC_per(1)","SWC_per(2)","Period(1)","Period(2)"
"TS","RN","","","","","","","","","","","","","","","","","","",""
"","","WVc","WVc","Avg","Avg","Avg","Tot","Avg","Tot","Smp","Smp","Smp","Avg","Avg","Avg","Avg","Smp","Smp","Smp","Smp"
"2017-01-20 00:00:00",271501,0.078,197.5,-10.6,91,0,0,861.6541,0,88.7,2.34,170,1.936,2.715,0.1138414,0,51.6,59.08,33.69,35.47
"2017-01-20 00:10:00",271502,0.44,187.9,-10.7,93.2,0,0,861.4698,0,88.6,2.34,170,1.933,2.715,0.1062522,0,51.6,59.08,33.69,35.47
"2017-01-20 00:20:00",271503,0.362,181.2,-10.56,92.8,0,0,861.3246,0,88.8,2.337,170,1.89,2.715,0.1555836,0,51.6,59.08,33.69,35.47
"2017-01-20 00:30:00",271504,0.12,210.4,-9.87,93.7,0,0,861.179,0,88.7,2.334,174,1.877,2.715,0.986628,0,51.55,59.08,33.68,35.47
"2017-01-20 00:40:00",271505,0.276,195.6,-9.53,93.6,0,0,860.9639,0,88.7,2.332,170,1.873,2.715,1.893567,0,51.6,59.08,33.69,35.47
"2017-01-20 00:50:00",271506,0.342,293,-8.05,97.3,0,0,860.9407,0,88.8,2.324,171,1.881,2.715,3.354535,0,51.6,59.08,33.69,35.47
"2017-01-20 01:00:00",271507,0.069,284,-7.507,93.7,0,0,860.9344,0,88.4,2.33,170,1.915,2.715,2.348934,0,51.6,59.08,33.69,35.47
"2017-01-20 01:10:00",271508,0.208,187.1,-8.05,93,0,0,860.7214,0,88.8,2.326,170,1.929,2.715,0.8424286,0,51.55,59.03,33.68,35.45
"2017-01-20 01:20:00",271509,0.299,190.5,-7.063,93.4,0,0,860.8943,0,88.4,2.324,170,1.932,2.715,2.041561,0,51.6,59.08,33.69,35.47
"2017-01-20 01:30:00",271510,0.6,296.2,-6.146,92.4,0,0,860.9555,0,88.4,2.323,170,1.933,2.714,2.147813,0,51.55,59.08,33.68,35.47
"2017-01-20 01:40:00",271511,0.121,107.1,-6.649,89.2,0,0,860.9344,0,88.5,2.325,170,1.936,2.705,0.2390676,0,51.6,59.08,33.69,35.47
"2017-01-20 01:50:00",271512,0.238,133,-6.336,90.6,0,0,860.7067,0,88.5,2.318,170,1.933,2.7,0.6564872,0,51.6,59.08,33.69,35.47
"2017-01-20 02:00:00",271513,0.121,143,-5.064,88.1,0,0,860.5695,0,88,2.322,178,1.923,2.683,1.635526,0,51.6,59.08,33.69,35.47
"2017-01-20 02:10:00",271514,0.295,141.8,-4.854,88.7,0,0,860.3965,0,88.2,2.317,171,1.901,2.675,1.552042,0,51.6,59.08,33.69,35.47
"2017-01-20 02:20:00",271515,0.393,121.1,-4.449,87.5,0,0,860.2216,0,88.2,2.316,179,1.892,2.673,1.119443,0,51.55,59.08,33.68,35.47
"2017-01-20 02:30:00",271516,0.33,121.9,-4.173,86.9,0,0,860.1815,0,88.4,2.314,171,1.884,2.67,0.9145283,0,51.55,59.08,33.68,35.47
"2017-01-20 02:40:00",271517,0.408,122.4,-3.897,85.9,0,0,860.2089,0,88.2,2.315,178,1.863,2.649,1.032165,0,51.6,59.08,33.69,35.47
"2017-01-20 02:50:00",271518,0.42,99.6,-3.921,86.4,0,0,860.1794,0,88,2.317,170,1.851,2.632,0.5767979,0,51.55,59.08,33.68,35.47
"2017-01-20 03:00:00",271519,0.228,84.6,-4.124,87.5,0,0,859.9874,0,87.9,2.318,169,1.851,2.63,0.0645103,0,51.6,59.08,33.69,35.47
"2017-01-20 03:10:00",271520,0.498,133.8,-4.195,87.5,0,0,859.5593,0,88.3,2.314,183,1.853,2.639,0.04174196,0,51.6,59.03,33.69,35.45
"2017-01-20 03:20:00",271521,0.631,176.4,-3.702,85.6,0,0,859.2239,0,87.9,2.317,170,1.866,2.666,0.4098301,0,51.6,59.08,33.69,35.47
"2017-01-20 03:30:00",271522,0.413,282.6,-3.618,85.4,0,0,859.0594,0,87.8,2.318,173,1.872,2.68,0.2049151,0,51.6,59.08,33.69,35.47
"2017-01-20 03:40:00",271523,0.208,103.2,-3.634,83.6,0,0,858.8449,0,87.7,2.318,170,1.896,2.705,0.04933022,0,51.55,59.08,33.68,35.47
"2017-01-20 03:50:00",271524,0.452,311.6,-3.777,83.5,0,0,858.6247,0,87.7,2.32,170,1.902,2.708,0,0,51.6,59.03,33.69,35.45
"2017-01-20 04:00:00",271525,0.161,304.4,-3.942,83.4,0,0,858.4908,0,87.4,2.324,174,1.883,2.697,0,0,51.6,59.08,33.69,35.47
"2017-01-20 04:10:00",271526,0.206,175.6,-4.855,87.4,0,0,858.2177,0,87.8,2.323,184,1.88,2.682,0,0,51.6,59.08,33.69,35.47
"2017-01-20 04:20:00",271527,0.096,248.2,-4.521,85.8,0,0,858.0938,0,87.5,2.323,176,1.875,2.668,0.1062329,0,51.55,59.08,33.68,35.47
"2017-01-20 04:30:00",271528,0.12,174.7,-4.315,81.4,0,0,858.1613,0,87.4,2.328,169,1.858,2.654,0.1631404,0,51.55,59.03,33.68,35.45
"2017-01-20 04:40:00",271529,0.099,196.2,-5.129,86.1,0,0,858.286,0,87.2,2.33,170,1.848,2.652,0.1024332,0,51.6,59.08,33.69,35.47
"2017-01-20 04:50:00",271530,0.235,182.1,-5.47,87.1,0,0,858.0879,0,87.4,2.329,169,1.843,2.633,0.08346044,0,51.6,59.08,33.69,35.47
"2017-01-20 05:00:00",271531,0.179,147.1,-5.419,87.7,0,0,858.0789,0,87.6,2.325,170,1.837,2.635,0.2086501,0,51.6,59.08,33.69,35.47
"2017-01-20 05:10:00",271532,0.426,132.8,-4.392,80.3,0,0,858.0233,0,87.2,2.325,170,1.836,2.634,0.9825588,0,51.55,59.03,33.68,35.45
"2017-01-20 05:20:00",271533,0.37,133.5,-3.69,76.39,0,0,857.9088,0,87,2.324,187,1.851,2.642,1.168457,0,51.6,59.08,33.69,35.47
"2017-01-20 05:30:00",271534,0.416,140.7,-3.322,75.99,0,0,857.6915,0,87.4,2.32,174,1.832,2.642,1.490902,0,51.55,59.03,33.68,35.45
"2017-01-20 05:40:00",271535,0.712,151.2,-2.851,75.34,0,0,857.567,0,87.3,2.319,182,1.819,2.64,2.052337,0,51.6,59.08,33.69,35.47
"2017-01-20 05:50:00",271536,0.755,128.9,-2.832,75.11,0,0,857.5622,0,87.2,2.32,178,1.819,2.636,1.703302,0,51.6,59.08,33.69,35.47
"2017-01-20 06:00:00",271537,0.704,173.5,-2.671,73.47,0,0,857.5178,0,86.9,2.323,183,1.827,2.645,1.836059,0,51.6,59.03,33.69,35.45
"2017-01-20 06:10:00",271538,0.577,145.5,-2.719,72.66,0,0,857.3386,0,87,2.322,169,1.82,2.661,1.506005,0,51.6,59.08,33.69,35.47
"2017-01-20 06:20:00",271539,0.261,337.5,-3.082,75.28,0,0,857.309,0,86.9,2.323,169,1.815,2.647,0.4741801,0,51.6,59.08,33.69,35.47
"2017-01-20 06:30:00",271540,0.291,330.4,-3.043,74.63,0,0,857.2816,0,87.1,2.322,169,1.829,2.669,0.6259164,0,51.55,59.08,33.68,35.47
"2017-01-20 06:40:00",271541,0.362,325.6,-3.295,75.86,0,0,857.1593,0,87.3,2.32,170,1.863,2.702,0.2579532,0,51.6,59.08,33.69,35.47
"2017-01-20 06:50:00",271542,0.497,351.9,-2.838,71.04,0,0,857.1213,0,86.9,2.323,174,1.866,2.689,1.210104,0,51.55,59.08,33.68,35.47
"2017-01-20 07:00:00",271543,0.395,350.9,-3.02,72.32,0,0,857.0771,0,86.7,2.327,187,1.859,2.672,1.543926,0,51.55,59.08,33.68,35.47
"2017-01-20 07:10:00",271544,0.291,10.16,-3.202,72.35,0,0,857.0307,0,86.7,2.326,170,1.834,2.657,3.391326,0,51.6,59.08,33.69,35.47
"2017-01-20 07:20:00",271545,0.317,340.7,-3.325,73.21,0.8655495,0,856.8115,0,86.8,2.327,169,1.842,2.682,6.767478,7.224,51.6,59.08,33.69,35.47
"2017-01-20 07:30:00",271546,0.535,288.5,-3.397,73.82,3.993331,0,856.7672,0,86.2,2.333,170,1.864,2.699,10.97818,2.969,51.55,59.08,33.68,35.47
"2017-01-20 07:40:00",271547,0.178,313.1,-3.532,74.19,5.409684,0,856.6027,0,86.4,2.331,170,1.847,2.683,12.65867,2.342,51.6,59.08,33.69,35.47
"2017-01-20 07:50:00",271548,0.41,296.2,-3.415,71.95,5.563123,0,856.55,0,86.4,2.33,182,1.84,2.674,13.81567,2.485,51.6,59.08,33.69,35.47
"2017-01-20 08:00:00",271549,0.385,307.8,-3.272,70.51,8.328947,0,856.55,0,86.3,2.332,173,1.817,2.644,18.25019,2.218,51.6,59.08,33.69,35.47
"2017-01-20 08:10:00",271550,0.688,349.8,-3.595,71.42,9.245642,0,856.5543,0,86.3,2.333,169,1.839,2.651,17.85188,1.941,51.6,59.08,33.69,35.47
"2017-01-20 08:20:00",271551,0.427,357,-3.833,73.84,18.20014,0,856.5585,0,86.3,2.333,177,1.869,2.677,25.24527,1.477,51.55,59.08,33.68,35.47
"2017-01-20 08:30:00",271552,0.518,323.5,-3.726,73.68,34.37805,0,856.55,0,86.5,2.33,169,1.874,2.668,43.24889,1.412,51.6,59.08,33.69,35.47
"2017-01-20 08:40:00",271553,1.014,110.7,-3.037,67.43,30.59324,0,856.4889,0,86.4,2.328,173,1.889,2.67,50.30087,1.647,51.55,59.08,33.68,35.47
"2017-01-20 08:50:00",271554,1.321,152.8,-2.61,62.36,31.82862,0,856.472,0,86.3,2.328,170,1.87,2.639,48.31691,1.523,51.6,59.08,33.69,35.47
"2017-01-20 09:00:00",271555,0.571,348.7,-2.937,66.07,26.65499,0,856.607,0,86.4,2.33,169,1.853,2.63,41.08663,1.533,51.55,59.08,33.68,35.47
"2017-01-20 09:10:00",271556,1.032,95.1,-3.026,66.71,36.56553,0,856.666,0,86.3,2.329,169,1.851,2.628,48.24104,1.323,51.6,59.08,33.69,35.47
"2017-01-20 09:20:00",271557,0.785,124.2,-2.501,63.34,57.19315,0,856.55,0,86.2,2.328,169,1.895,2.628,74.73814,1.306,51.6,59.08,33.69,35.47
"2017-01-20 09:30:00",271558,1.097,117.2,-2.243,62.26,65.1208,0,856.5774,0,86.1,2.328,169,1.916,2.628,84.60864,1.302,51.55,59.08,33.68,35.47
"2017-01-20 09:40:00",271559,1.125,122.3,-2.12,60.11,72.24967,0,856.5248,0,86.1,2.328,169,1.92,2.636,94.03518,1.302,51.6,59.08,33.69,35.47
"2017-01-20 09:50:00",271560,0.877,144.8,-1.984,60.43,90.0265,0,856.2742,0,86,2.328,169,1.891,2.653,114.346,1.271,51.6,59.08,33.69,35.47
"2017-01-20 10:00:00",271561,1.238,131,-1.862,61.33,98.29768,0,856.0927,0,86,2.328,169,1.868,2.647,119.3986,1.214,51.6,59.08,33.69,35.47
"2017-01-20 10:10:00",271562,0.746,114.2,-1.844,62.78,102.4409,0,855.879,0,85.9,2.328,169,1.851,2.629,124.8747,1.22,51.6,59.14,33.69,35.48
"2017-01-20 10:20:00",271563,0.623,131.1,-1.734,65.71,99.13186,0,855.7107,0,85.9,2.329,170,1.823,2.608,118.2838,1.194,51.6,59.14,33.69,35.48
"2017-01-20 10:30:00",271564,0.809,67.35,-1.926,67.92,44.68811,0,855.6992,0,85.9,2.331,169,1.794,2.594,57.84358,1.297,51.66,59.08,33.7,35.47
"2017-01-20 10:40:00",271565,0.532,61.12,-2.291,72.72,49.05252,0,855.5114,0,85.9,2.331,173,1.8,2.591,63.28756,1.303,51.6,59.08,33.69,35.47
"2017-01-20 10:50:00",271566,0.597,84.1,-2.468,77.9,45.34731,0,855.3744,0,85.8,2.333,170,1.796,2.595,56.71154,1.251,51.6,59.08,33.69,35.47
"2017-01-20 11:00:00",271567,0.259,29.87,-2.67,83.6,36.82051,0,855.21,0,85.4,2.337,174,1.777,2.616,46.34369,1.258,51.6,59.08,33.69,35.47
"2017-01-20 11:10:00",271568,0.409,103.7,-2.777,87,37.84306,0,855.1973,0,85.2,2.341,189,1.788,2.603,47.39409,1.252,51.6,59.08,33.69,35.47
"2017-01-20 11:20:00",271569,0.912,121,-3.243,92,43.77792,0,855.0583,0,85.5,2.339,193,1.795,2.596,58.93734,1.344,51.6,59.14,33.69,35.48
"2017-01-20 11:30:00",271570,1.368,139.5,-3.385,94.5,107.0752,0,854.5671,0,86.8,2.326,174,1.796,2.609,149.8689,1.402,51.6,59.08,33.69,35.47
"2017-01-20 11:40:00",271571,1.228,132.7,-3.059,91.2,121.5603,0,854.1371,0,86.7,2.326,193,1.779,2.623,166.3875,1.374,51.6,59.08,33.69,35.47
"2017-01-20 11:50:00",271572,1.005,146.4,-2.87,87.2,94.61552,0,853.7767,0,86.7,2.325,193,1.767,2.628,128.7771,1.36,51.55,59.08,33.68,35.47
"2017-01-20 12:00:00",271573,0.448,65.49,-2.706,87.3,43.53801,0,853.6862,0,84.9,2.342,181,1.791,2.639,61.05336,1.399,51.6,59.14,33.69,35.48
"2017-01-20 12:10:00",271574,0.54,86.9,-2.661,91,48.51322,0,853.6588,0,85.6,2.336,238,1.785,2.639,69.88524,1.44,51.6,59.08,33.69,35.47
"2017-01-20 12:20:00",271575,0.619,120.3,-2.917,94.5,40.02979,0,853.4711,0,85.7,2.336,200,1.811,2.633,60.18496,1.503,51.6,59.08,33.69,35.47
"2017-01-20 12:30:00",271576,0.487,117.6,-2.958,97,40.77313,0,853.4205,0,88,2.313,201,1.819,2.629,67.18523,1.642,51.6,59.14,33.69,35.48
"2017-01-20 12:40:00",271577,0.615,121,-2.911,97.7,45.03647,0,853.2351,0.5,88.6,2.307,205,1.82,2.637,79.88509,1.766,51.6,59.08,33.69,35.47
"2017-01-20 12:50:00",271578,1.108,138,-2.93,96.9,65.48399,0,852.9969,0,89.4,2.298,186,1.831,2.63,119.5167,1.824,51.6,59.08,33.69,35.47
"2017-01-20 13:00:00",271579,1.009,125.8,-2.866,95.9,65.91662,0,852.921,0,90.1,2.292,351,1.841,2.643,121.7237,1.844,51.55,59.08,33.68,35.47
"2017-01-20 13:10:00",271580,1.105,130,-3.063,93.5,62.1567,0,852.7363,0.5,88.8,2.305,184,1.835,2.633,114.1281,1.833,51.6,59.08,33.69,35.47
"2017-01-20 13:20:00",271581,0.962,129,-2.961,93.1,70.1721,0,852.6573,0,89.7,2.296,193,1.835,2.635,131.6477,1.875,51.55,59.08,33.68,35.47
"2017-01-20 13:30:00",271582,0.78,128.9,-2.903,92.3,73.58085,0,852.5956,0,89.6,2.296,199,1.83,2.636,137.057,1.856,51.66,59.14,33.7,35.48
"2017-01-20 13:40:00",271583,0.626,111.7,-2.649,91.5,74.84003,0,852.4173,0,89.6,2.296,193,1.791,2.641,140.24,1.871,51.6,59.08,33.69,35.47
"2017-01-20 13:50:00",271584,0.745,110.8,-2.736,91.2,66.72478,0,852.3859,0,89.5,2.296,193,1.781,2.645,122.6418,1.837,51.6,59.08,33.69,35.47
"2017-01-20 14:00:00",271585,0.885,130.4,-2.668,89.5,80.24283,0,852.1895,0,89.4,2.296,196,1.774,2.638,149.3811,1.854,51.6,59.14,33.69,35.48
"2017-01-20 14:10:00",271586,0.646,130.7,-2.415,86.3,83.09745,0,852.0901,0,89.3,2.297,198,1.763,2.624,145.2595,1.744,51.6,59.08,33.69,35.47
"2017-01-20 14:20:00",271587,0.716,128.4,-2.447,85.7,73.78753,0,852.1093,0,89.1,2.299,198,1.75,2.603,123.7062,1.722,51.6,59.14,33.69,35.48
"2017-01-20 14:30:00",271588,0.447,100.5,-2.448,84.4,61.33549,0,852.2444,0,89.2,2.297,198,1.746,2.588,111.8676,1.821,51.66,59.14,33.7,35.48
"2017-01-20 14:40:00",271589,0.592,111.8,-2.517,82.3,38.59728,0,852.1098,0,89.2,2.3,195,1.755,2.582,68.36104,1.764,51.55,59.08,33.68,35.47
"2017-01-20 14:50:00",271590,0.548,109.7,-2.763,84.6,32.7781,0,852.0504,0,89.2,2.3,198,1.749,2.58,56.30929,1.713,51.6,59.08,33.69,35.47
"2017-01-20 15:00:00",271591,0.667,136.9,-3.056,84.7,35.56554,0,851.907,0,89.1,2.302,195,1.737,2.579,60.18719,1.693,51.6,59.08,33.69,35.47
"2017-01-20 15:10:00",271592,0.75,125,-3.114,82.3,36.71356,0,851.8185,0,89,2.303,200,1.718,2.579,65.0925,1.773,51.55,59.08,33.68,35.47
"2017-01-20 15:20:00",271593,0.572,139.9,-3.031,80.4,37.81441,0,851.7617,0,88.9,2.303,199,1.717,2.578,66.69222,1.764,51.6,59.08,33.69,35.47
"2017-01-20 15:30:00",271594,0.689,125.8,-3.025,81.1,36.27321,0,851.6036,0,88.9,2.304,198,1.731,2.577,63.78086,1.758,51.6,59.14,33.69,35.48
"2017-01-20 15:40:00",271595,0.41,101.6,-3.053,80.1,36.63492,0,851.3655,0,88.9,2.304,201,1.753,2.569,65.0887,1.773,51.6,59.08,33.69,35.47
"2017-01-20 15:50:00",271596,0.394,49.48,-3.132,81.3,28.46106,0,851.3024,0,88.7,2.306,189,1.744,2.571,49.20129,1.726,51.6,59.08,33.69,35.47
"2017-01-20 16:00:00",271597,0.396,346.1,-3.308,82.9,20.79439,0,851.3466,0,88.5,2.31,198,1.737,2.583,36.64983,1.758,51.6,59.08,33.69,35.47
"2017-01-20 16:10:00",271598,0.606,128.3,-3.33,80.3,21.95029,0,851.4435,0,88.7,2.307,202,1.712,2.592,38.7727,1.762,51.6,59.08,33.69,35.47
"2017-01-20 16:20:00",271599,0.4,142.5,-3.438,79.82,15.12517,0,851.5046,0,88.6,2.309,201,1.714,2.57,26.21399,1.732,51.6,59.08,33.69,35.47
"2017-01-20 16:30:00",271600,0.512,86.5,-3.479,81,14.1743,0,851.358,0,88.5,2.31,197,1.729,2.561,25.27112,1.775,51.6,59.08,33.69,35.47
"2017-01-20 16:40:00",271601,0.24,97.3,-3.571,80.8,6.771163,0,851.3445,0,88.4,2.311,201,1.75,2.538,11.97685,1.766,51.6,59.08,33.69,35.47
"2017-01-20 16:50:00",271602,0.582,94.5,-3.871,81.2,3.731931,0,851.2911,0,88.4,2.314,197,1.772,2.55,5.649578,1.505,51.6,59.08,33.69,35.47
"2017-01-20 17:00:00",271603,0.374,91.8,-4.039,82.1,1.384311,0,851.377,0,88.4,2.313,200,1.787,2.565,2.893209,2.242,51.6,59.14,33.69,35.48
"2017-01-20 17:10:00",271604,0.682,114.9,-3.953,80.7,0.2713667,0,851.386,0,88.3,2.314,200,1.798,2.581,1.418219,3.399,51.6,59.08,33.69,35.47
"2017-01-20 17:20:00",271605,0.116,141.2,-3.984,81.3,0,0,851.4012,0,88.2,2.315,194,1.818,2.613,0.3071599,0,51.6,59.08,33.69,35.47
"2017-01-20 17:30:00",271606,0.322,131.7,-4.081,83.1,0,0,851.4303,0,88,2.317,198,1.84,2.623,0.182022,0,51.6,59.08,33.69,35.47
"2017-01-20 17:40:00",271607,0.414,124.4,-4.006,83.4,0,0,851.4476,0,88.2,2.315,202,1.845,2.604,0.4436791,0,51.6,59.08,33.69,35.47
"2017-01-20 17:50:00",271608,0.65,144.8,-4.051,83.4,0,0,851.1905,0,88.1,2.317,190,1.844,2.598,0.322331,0,51.6,59.08,33.69,35.47
"2017-01-20 18:00:00",271609,0.837,150.6,-4.1,82.9,0,0,851.1525,0,88.1,2.316,194,1.84,2.557,0.1971908,0,51.6,59.08,33.69,35.47
"2017-01-20 18:10:00",271610,0.501,153.4,-4.055,83,0,0,851.1378,0,88,2.318,197,1.835,2.54,0.2692412,0,51.6,59.08,33.69,35.47
"2017-01-20 18:20:00",271611,0.471,127.8,-4.148,84.8,0,0,851.2853,0,88,2.318,198,1.825,2.54,0.2464885,0,51.6,59.08,33.69,35.47
"2017-01-20 18:30:00",271612,0.209,115.1,-4.058,85,0,0,851.3444,0,87.8,2.319,197,1.845,2.542,0.261657,0,51.6,59.08,33.69,35.47
"2017-01-20 18:40:00",271613,0.347,89.5,-4.167,87,0,0,851.3718,0,87.6,2.322,179,1.855,2.544,0.2275278,0,51.6,59.08,33.69,35.47
"2017-01-20 18:50:00",271614,0.386,90.4,-4.265,89.6,0,0,851.1694,0,87.5,2.323,172,1.863,2.552,0.2123593,0,51.6,59.08,33.69,35.47
"2017-01-20 19:00:00",271615,0.175,28.33,-4.292,91.8,0,0,851.1652,0,86.7,2.332,203,1.823,2.548,0.06825834,0,51.6,59.08,33.69,35.47
"2017-01-20 19:10:00",271616,0.504,210.1,-4.488,96.2,0.04326266,0,851.3865,0.5,88.1,2.319,195,1.83,2.554,0.00379213,0,51.6,59.08,33.69,35.47
"2017-01-20 19:20:00",271617,0.213,23.37,-4.765,99.5,0.2359781,0,851.3338,0,88.1,2.32,199,1.826,2.564,0,0,51.6,59.08,33.69,35.47
"2017-01-20 19:30:00",271618,0.674,56.06,-4.83,100,0.2320452,0,851.4012,0,88.1,2.32,201,1.807,2.562,0,0,51.6,59.08,33.69,35.47
"2017-01-20 19:40:00",271619,0.44,73.35,-4.909,96,0.2359781,0,851.4033,0,87.9,2.322,200,1.804,2.579,0,0,51.6,59.08,33.69,35.47
"2017-01-20 19:50:00",271620,0.29,133.4,-5.024,91.3,0.07079343,0,851.4033,0,87.9,2.323,202,1.802,2.576,0,0,51.6,59.08,33.69,35.47
"2017-01-20 20:00:00",271621,0.842,128.4,-5.253,94.1,0.1612517,0,851.4033,0,87.7,2.326,203,1.802,2.581,0,0,51.6,59.14,33.69,35.48
"2017-01-20 20:10:00",271622,0.693,142.5,-5.36,95.7,0.1179891,0,851.4033,0,87.9,2.324,205,1.802,2.581,0,0,51.6,59.14,33.69,35.48
"2017-01-20 20:20:00",271623,0.417,138.3,-5.376,94.7,0.003932969,0,851.4033,0,87.8,2.325,201,1.8,2.582,0,0,51.6,59.08,33.69,35.47
"2017-01-20 20:30:00",271624,0.54,130.1,-5.305,92.3,0,0,851.3949,0,87.7,2.325,201,1.794,2.581,0.125142,0,51.6,59.14,33.69,35.48
"2017-01-20 20:40:00",271625,0.532,146.3,-5.236,90.5,0,0,851.2178,0,87.7,2.325,206,1.78,2.561,0.2275367,0,51.6,59.08,33.69,35.47
"2017-01-20 20:50:00",271626,0.423,143.4,-5.069,88.7,0,0,851.2895,0.5,87.7,2.325,202,1.782,2.584,0.2427179,0,51.6,59.08,33.69,35.47
"2017-01-20 21:00:00",271627,0.538,149,-4.998,87.8,0,0,851.3928,0,87.5,2.326,207,1.797,2.59,0.2503251,0,51.6,59.08,33.69,35.47
"2017-01-20 21:10:00",271628,0.494,149.7,-4.961,87.3,0,0,851.3583,0,87.5,2.326,201,1.798,2.603,0.2275811,0,51.66,59.08,33.7,35.47
"2017-01-20 21:20:00",271629,0.538,146.6,-4.946,86.8,0,0,851.2545,0,87.5,2.326,202,1.802,2.607,0.2275896,0,51.6,59.08,33.69,35.47
"2017-01-20 21:30:00",271630,0.536,144.3,-4.979,86.6,0,0,851.206,0,87.5,2.326,213,1.811,2.648,0.2275937,0,51.6,59.08,33.69,35.47
"2017-01-20 21:40:00",271631,0.569,149.4,-4.979,86.7,0,0,851.0438,0,87.3,2.328,201,1.802,2.624,0.2238056,0,51.6,59.08,33.69,35.47
"2017-01-20 21:50:00",271632,0.659,144.9,-5,87,0,0,850.9759,0,87.3,2.329,201,1.817,2.633,0.227603,0,51.66,59.08,33.7,35.47
"2017-01-20 22:00:00",271633,0.635,161.1,-5.02,86.9,0,0,850.9811,0,87.2,2.329,200,1.825,2.657,0.2276048,0,51.66,59.08,33.7,35.47
"2017-01-20 22:10:00",271634,0.231,132.6,-4.97,87.1,0,0,851.1223,0,87.1,2.33,200,1.827,2.631,0.2276054,0,51.6,59.08,33.69,35.47
"2017-01-20 22:20:00",271635,0.435,116,-5.045,87.9,0,0,851.2345,0,87.2,2.33,200,1.816,2.627,0.2276056,0,51.6,59.08,33.69,35.47
"2017-01-20 22:30:00",271636,0.192,102.8,-5.037,88.5,0,0,851.2404,0,87.2,2.33,201,1.815,2.63,0.04931455,0,51.6,59.08,33.69,35.47
"2017-01-20 22:40:00",271637,0.294,118,-5.208,89.8,0,0,851.3252,0,86.9,2.334,206,1.813,2.627,0.04552113,0,51.66,59.08,33.7,35.47
"2017-01-20 22:50:00",271638,0.198,130.8,-5.171,89.6,0,0,851.2579,0,86.7,2.335,200,1.819,2.627,0.2276056,0,51.6,59.08,33.69,35.47
"2017-01-20 23:00:00",271639,0.004,129.7,-5.076,89.5,0,0,851.2663,0,86.5,2.337,200,1.817,2.627,0.1744976,0,51.6,59.08,33.69,35.47
"2017-01-20 23:10:00",271640,0.075,146.1,-5.099,90.2,0,0,851.2811,0,86.7,2.335,194,1.813,2.627,0.2162253,0,51.6,59.08,33.69,35.47
"2017-01-20 23:20:00",271641,0.002,72.23,-5.193,92,0,0,851.4012,0,86.7,2.336,201,1.808,2.627,0.04931455,0,51.6,59.08,33.69,35.47
"2017-01-20 23:30:00",271642,0.048,75.6,-5.216,92.8,0,0,851.4855,0,87.3,2.329,192,1.81,2.625,0.02276056,0,51.6,59.08,33.69,35.47
"2017-01-20 23:40:00",271643,0,0,-5.236,93.2,0,0,851.4898,0,87.3,2.33,172,1.807,2.627,0,0,51.6,59.08,33.69,35.47
"2017-01-20 23:50:00",271644,0,0,-5.431,94.8,0,0,851.5193,0,87.4,2.33,186,1.805,2.625,0,0,51.6,59.08,33.69,35.47
